EDV5531 KLGA-CYUL

Flight info

Callsign EDV5531
Flight time N/A
Altitude 25000
Route GREKI DCT JUDDS DCT CAM DCT JASDU DCT PBERG CARTR5
Aircraft CRJ9/M-SDFGIRWY/S

Departure

Time 2026-05-07 01:22
Airport LaGuardia Airport (KLGA)

Arrival

Time N/A
Airport Montreal / Pierre Elliott Trudeau International Airport (CYUL)
Time Latitude Longitude Altitude Speed Heading
2026-05-07 00:44 40.77153 -73.86184 19 ft 0 kts 312°
2026-05-07 00:56 40.77147 -73.86174 18 ft 4 kts 297°
2026-05-07 00:57 40.77138 -73.86148 21 ft 4 kts 299°
2026-05-07 00:57 40.77124 -73.86134 20 ft 4 kts
2026-05-07 00:57 40.77106 -73.86152 20 ft 4 kts 42°
2026-05-07 00:57 40.77096 -73.86163 18 ft 0 kts 42°
2026-05-07 01:00 40.77108 -73.86149 18 ft 5 kts 42°
2026-05-07 01:00 40.77138 -73.86113 18 ft 7 kts 41°
2026-05-07 01:00 40.77200 -73.86105 11 ft 8 kts 334°
2026-05-07 01:00 40.77229 -73.86114 9 ft 1 kts
2026-05-07 01:01 40.77235 -73.86112 9 ft 0 kts 16°
2026-05-07 01:01 40.77254 -73.86099 10 ft 4 kts 32°
2026-05-07 01:02 40.77284 -73.86111 11 ft 7 kts 312°
2026-05-07 01:02 40.77314 -73.86169 11 ft 8 kts 303°
2026-05-07 01:02 40.77345 -73.86233 11 ft 9 kts 302°
2026-05-07 01:02 40.77373 -73.86293 11 ft 0 kts 302°
2026-05-07 01:03 40.77378 -73.86304 11 ft 6 kts 302°
2026-05-07 01:03 40.77409 -73.86368 11 ft 9 kts 302°
2026-05-07 01:03 40.77443 -73.86439 11 ft 9 kts 302°
2026-05-07 01:04 40.77474 -73.86505 10 ft 2 kts 302°
2026-05-07 01:04 40.77475 -73.86508 10 ft 0 kts 302°
2026-05-07 01:04 40.77476 -73.86509 10 ft 1 kts 302°
2026-05-07 01:04 40.77478 -73.86535 10 ft 6 kts 258°
2026-05-07 01:05 40.77472 -73.86557 10 ft 4 kts 240°
2026-05-07 01:05 40.77447 -73.86572 10 ft 7 kts 175°
2026-05-07 01:05 40.77397 -73.86502 11 ft 10 kts 122°
2026-05-07 01:05 40.77355 -73.86413 11 ft 12 kts 122°
2026-05-07 01:06 40.77309 -73.86325 11 ft 11 kts 139°
2026-05-07 01:06 40.77255 -73.86310 16 ft 6 kts 187°
2026-05-07 01:06 40.77207 -73.86303 19 ft 2 kts 157°
2026-05-07 01:06 40.77205 -73.86302 19 ft 0 kts 157°
2026-05-07 01:08 40.77211 -73.86307 18 ft 1 kts 121°
2026-05-07 01:08 40.77210 -73.86342 18 ft 5 kts 55°
2026-05-07 01:09 40.77213 -73.86342 18 ft 3 kts 20°
2026-05-07 01:09 40.77228 -73.86337 18 ft 0 kts 19°
2026-05-07 01:10 40.77231 -73.86335 18 ft 3 kts 19°
2026-05-07 01:11 40.77244 -73.86327 18 ft 0 kts 35°
2026-05-07 01:13 40.77276 -73.86298 13 ft 11 kts 32°
2026-05-07 01:13 40.77358 -73.86276 11 ft 12 kts 325°
2026-05-07 01:13 40.77410 -73.86371 11 ft 13 kts 302°
2026-05-07 01:14 40.77459 -73.86475 10 ft 14 kts 303°
2026-05-07 01:14 40.77512 -73.86585 10 ft 14 kts 302°
2026-05-07 01:14 40.77566 -73.86700 10 ft 15 kts 302°
2026-05-07 01:14 40.77622 -73.86817 10 ft 15 kts 302°
2026-05-07 01:15 40.77679 -73.86937 10 ft 16 kts 302°
2026-05-07 01:15 40.77736 -73.87056 11 ft 15 kts 302°
2026-05-07 01:15 40.77791 -73.87171 12 ft 14 kts 302°
2026-05-07 01:15 40.77844 -73.87281 12 ft 14 kts 302°
2026-05-07 01:16 40.77895 -73.87387 13 ft 12 kts 302°
2026-05-07 01:16 40.77917 -73.87435 13 ft 0 kts 302°
2026-05-07 01:17 40.77922 -73.87446 13 ft 5 kts 302°
2026-05-07 01:17 40.77962 -73.87531 14 ft 15 kts 302°
2026-05-07 01:18 40.78023 -73.87655 13 ft 16 kts 302°
2026-05-07 01:18 40.78071 -73.87757 15 ft 12 kts 302°
2026-05-07 01:18 40.78111 -73.87838 16 ft 6 kts 312°
2026-05-07 01:18 40.78132 -73.87854 16 ft 0 kts 344°
2026-05-07 01:20 40.78133 -73.87855 16 ft 2 kts 344°
2026-05-07 01:20 40.78160 -73.87865 19 ft 5 kts 349°
2026-05-07 01:21 40.78200 -73.87860 15 ft 6 kts 21°
2026-05-07 01:21 40.78213 -73.87822 14 ft 5 kts 106°
2026-05-07 01:21 40.78175 -73.87738 12 ft 39 kts 122°
2026-05-07 01:21 40.77880 -73.87118 13 ft 118 kts 122°
2026-05-07 01:22 40.77349 -73.85982 162 ft 163 kts 123°
2026-05-07 01:22 40.76747 -73.84643 772 ft 179 kts 124°
2026-05-07 01:22 40.76134 -73.83099 1315 ft 204 kts 110°
2026-05-07 01:22 40.76123 -73.81065 1513 ft 248 kts 72°
2026-05-07 01:23 40.77008 -73.79094 2403 ft 247 kts 50°
2026-05-07 01:23 40.78044 -73.77241 3342 ft 253 kts 50°
2026-05-07 01:23 40.79273 -73.75577 4165 ft 255 kts 28°
2026-05-07 01:23 40.80820 -73.74269 4773 ft 273 kts 27°
2026-05-07 01:24 40.82451 -73.72924 5433 ft 287 kts 27°
2026-05-07 01:24 40.84207 -73.71598 6128 ft 296 kts 15°
2026-05-07 01:24 40.86169 -73.70826 6935 ft 296 kts
2026-05-07 01:24 40.88171 -73.70056 7777 ft 304 kts 12°
2026-05-07 01:25 40.90066 -73.68658 8577 ft 320 kts 31°
2026-05-07 01:25 40.91885 -73.66901 9343 ft 329 kts 31°
2026-05-07 01:25 40.93758 -73.65093 9731 ft 334 kts 31°
2026-05-07 01:25 40.95612 -73.63255 9880 ft 333 kts 31°
2026-05-07 01:26 40.97464 -73.61397 10065 ft 335 kts 31°
2026-05-07 01:26 40.99434 -73.59832 10719 ft 326 kts
2026-05-07 01:26 41.01612 -73.59066 11461 ft 332 kts 14°
2026-05-07 01:26 41.03698 -73.57599 12201 ft 344 kts 24°
2026-05-07 01:27 41.05804 -73.56070 12947 ft 346 kts 18°
2026-05-07 01:27 41.08022 -73.54805 13694 ft 349 kts 14°
2026-05-07 01:27 41.10293 -73.53633 14429 ft 351 kts 13°
2026-05-07 01:27 41.12579 -73.52472 15185 ft 353 kts 14°
2026-05-07 01:28 41.14829 -73.51220 15887 ft 358 kts 16°
2026-05-07 01:28 41.17104 -73.49829 16616 ft 361 kts 17°
2026-05-07 01:28 41.19392 -73.48429 17340 ft 362 kts 17°
2026-05-07 01:28 41.21702 -73.47049 18009 ft 366 kts 16°
2026-05-07 01:29 41.24040 -73.45685 18566 ft 370 kts 15°
2026-05-07 01:29 41.26409 -73.44293 19106 ft 374 kts 15°
2026-05-07 01:29 41.28797 -73.42880 19647 ft 378 kts 14°
2026-05-07 01:29 41.31216 -73.41447 20198 ft 381 kts 14°
2026-05-07 01:30 41.33650 -73.40010 20691 ft 386 kts 13°
2026-05-07 01:30 41.36114 -73.38554 21212 ft 389 kts 13°
2026-05-07 01:30 41.38596 -73.37086 21709 ft 393 kts 12°
2026-05-07 01:30 41.41106 -73.35600 22226 ft 397 kts 12°
2026-05-07 01:31 41.43656 -73.34094 22719 ft 401 kts 11°
2026-05-07 01:31 41.44481 -73.33605 22884 ft 402 kts 11°
2026-05-07 01:31 41.46024 -73.32686 23191 ft 404 kts 11°
2026-05-07 01:31 41.48554 -73.30938 23573 ft 424 kts 23°
2026-05-07 01:32 41.50876 -73.28410 24020 ft 438 kts 34°
2026-05-07 01:32 41.53018 -73.25455 24419 ft 446 kts 38°
2026-05-07 01:32 41.55033 -73.22239 24635 ft 464 kts 51°
2026-05-07 01:32 41.56712 -73.18487 24748 ft 473 kts 47°
2026-05-07 01:33 41.58977 -73.15385 24824 ft 462 kts 26°
2026-05-07 01:33 41.60761 -73.13679 24857 ft 465 kts 22°
2026-05-07 01:34 41.61232 -73.13270 24853 ft 464 kts 20°
2026-05-07 01:34 41.64114 -73.11521 24852 ft 450 kts